Location: Baumgarten
(49.0970°N, 12.7493°E)
Time: 02:03:49
(UTC+00:00)

Meteor 1-21 Rocket - Pass Details

Date: 05 July 2020
Orbit: 833 x 907 km, 81.2° (Epoch: 04 August)

Event Time Altitude Azimuth Distance (km) Brightness Sun altitude
Rises 19:48:26 0° 185° (S) 3,508 7.0 -4.9°
Reaches altitude 10° 19:50:53 10° 184° (S) 2,577 6.4 -5.2°
Maximum altitude 19:56:46 78° 99° (E) 932 4.4 -5.9°
Drops below altitude 10° 20:02:43 10° 14° (NNE) 2,601 7.2 -6.6°
Sets 20:05:11 0° 14° (NNE) 3,543 7.9 -6.9°
